User: anonymous
Location: Mactaquac Provincial Park
(45.9573°N, 66.8897°W)
Time: 10:39:05
(UTC-03:00)
Language:

Cosmos 1867 - Orbit

View from above orbital plane
View from above orbital plane
View from above satellite
View from above satellite

Ground track
Ground track

The orbit data is extracted from the following two-line orbital elements,

1 18187U 87060A   14243.38149300 -.00000094  00000-0  21759-5 0  1409
2 18187 065.0109 205.5269 0014647 262.7881 097.1538 14.31025236417926
Epoch (UTC): 31 August 2014 09:09:20
Eccentricity: 0.0014647
inclination: 65.0109°
perigee height: 778 km
apogee height: 799 km
right ascension of ascending node: 205.5269°
argument of perigee: 262.7881°
revolutions per day: 14.31025236
mean anomaly at epoch: 97.1538°
orbit number at epoch: 41792

The dashed part of the orbit path shows where the satellite is in the earth's shadow,  

DLR